Regional Weather Roundup
Issued by NWS

Home | Current Version | Previous Version | Text Only | Print | Product List | Glossary Off
Versions: 1 2 3 4 5 6 7 8 9 10 11 12 13 14 15 16 17 18 19 20 21 22 23 24 25 26 27 28 29 30 31 32 33 34 35 36 37 38 39 40 41 42 43 44 45 46 47 48 49 50

000
ASUS45 KBOU 290707
RWRCO

WEATHER ROUNDUP FOR COLORADO
NATIONAL WEATHER SERVICE DENVER/BOULDER CO
100 AM MDT MON MAY 29 2017

NOTE: "FAIR" INDICATES FEW OR NO CLOUDS BELOW 12000 FEET WITH NO
SIGNIFICANT WEATHER AND/OR OBSTRUCTIONS TO VISIBILITY.

COZ001>005-013-030-031-290800-
...NORTHWEST COLORADO...

CITY           SKY/WX    TMP DP  RH WIND       PRES   REMARKS
CRAIG          FAIR      39  33  79 CALM      30.26S
HAYDEN         FAIR      43  30  61 E8        30.27S
MEEKER         FAIR      43  32  65 E5        30.27S
RABBIT EARS PA FAIR      37  27  65 NW6       30.45S
STEAMBOAT SPGS FAIR      42  33  73 CALM      30.30S
WALDEN           N/A     37  30  75 N3        30.38R
$$

COZ006>008-011-290800-
...WEST CENTRAL VALLEYS...

CITY           SKY/WX    TMP DP  RH WIND       PRES   REMARKS
GRAND JUNCTION FAIR      62  27  26 SW5       30.15R
MONTROSE       FAIR      52  23  32 SE10      30.23R
EAGLE          FAIR      44  30  57 SE3       30.31R
RIFLE          FAIR      50  31  48 E8        30.22R
DELTA          FAIR      55  24  29 E5        30.19S
NUCLA          FAIR      52  19  28 E13       30.25S
$$

COZ017>023-064>068-290800-
...SOUTHWEST COLORADO...

CITY           SKY/WX    TMP DP  RH WIND       PRES   REMARKS
DURANGO        FAIR      37  23  56 CALM      30.22F
CORTEZ         FAIR      42  29  59 E7        30.21S
PAGOSA SPRINGS FAIR      41  12  30 CALM      30.29S
TELLURIDE      FAIR      43  19  38 SE7       30.40S
WOLF CREEK PAS FAIR      36   9  32 CALM      30.55F
$$

COZ009-010-012-014-032>034-037-058>063-290800-
...CENTRAL COLORADO...

CITY           SKY/WX    TMP DP  RH WIND       PRES   REMARKS
ASPEN          FAIR      39  28  64 S7        30.33R
BUENA VISTA    FAIR      43  26  50 CALM      30.36S
COPPER MTN     FAIR      37  23  56 N5        30.52S
BERTHOUD PASS  FAIR      28  18  64 S6        30.53S WCI  22
COTTONWOOD PAS FAIR      45  21  39 W7        30.43S
GUNNISON       FAIR      40  23  50 N3        30.34R
KREMMLING      FAIR      45  36  70 CALM      30.34S
LEADVILLE      FAIR      34  19  54 CALM      30.42R
MONARCH PASS   FAIR      32  27  80 NE9       30.61S WCI  24
SALIDA         FAIR      47  29  50 CALM      30.41R
SUNLIGHT       FAIR      36  23  60 CALM      30.49F
WILKERSON PASS FAIR      34  27  75 SE5       30.52S WCI  30
$$

COZ069>075-290800-
...SAN LUIS VALLEY/SANGRE DE CRISTO MOUNTAINS...

CITY           SKY/WX    TMP DP  RH WIND       PRES   REMARKS
ALAMOSA        FAIR      43  29  57 SE5       30.28S
DEL NORTE      FAIR      44  21  40 E10       30.33R
LA VETA PASS   FAIR      37  30  75 NE9       30.53F
SAGUACHE       FAIR      50  19  29 N5        30.31R
$$

COZ035-036-038>040-290800-
...NORTHERN COLORADO FRONT RANGE...

CITY           SKY/WX    TMP DP  RH WIND       PRES   REMARKS
DENVER INTL AP LGT RAIN  51  46  83 CALM      30.29R
DMNS CITY PARK   N/A     53  43  67 E13       30.28S
AURORA         MOCLDY    50  42  73 SE5       30.30R
FRONT RANGE AP LGT RAIN  52  46  82 S5        30.29S
ERIE MUNI ARPT LGT RAIN  54  47  76 SE8       30.28R
BOULDER MUN AP RAIN      52  48  87 N10       30.29R
CENTENNIAL     CLOUDY    50  43  77 S6        30.30R
BROOMFIELD     CLOUDY    54  43  66 E3        30.30R
FORT COLLINS   FAIR      48  42  80 S3        30.28F
LONGMONT       LGT RAIN  55  47  74 NE6       30.31R
$$

COZ041-046-047-076>085-087-088-290800-
...PIKES PEAK/PALMER DIVIDE AND SOUTHERN FOOTHILLS...

CITY           SKY/WX    TMP DP  RH WIND       PRES   REMARKS
COLO. SPRINGS  FAIR      50  39  66 NE14      30.30R
A. F. ACADEMY  FAIR      48  36  64 N7        30.31R
SCHRIEVER AFB  FAIR      48  39  72 NW12      30.31R
CHEYENNE MTN   FAIR      51  32  47 NW12      30.27R
ELLICOTT       FAIR     N/A N/A N/A E13       30.28S
FALCON         FAIR      46  37  69 N6        30.34S
FORT CARSON    FAIR      49  37  64 NW9       30.28R
LIMON          MOCLDY    50  44  80 NE22G30   30.25F
MONUMENT HILL  FAIR      41  36  81 N5        30.36R
CANON CITY     NOT AVBL
WALSENBURG     FAIR      48  43  81 NE5       30.27S
TRINIDAD       FAIR      48  36  63 W6        30.25F
$$

COZ042>045-048>051-090-091-290800-
...NORTHEAST COLORADO...

CITY           SKY/WX    TMP DP  RH WIND       PRES   REMARKS
GREELEY ARPT   FAIR      50  46  86 SW3       30.26F
AKRON          FAIR      52  42  69 NW9       30.23R
BURLINGTON     FAIR      50  45  83 W6        30.18S
WRAY           FAIR      50  45  81 NW6       30.17F
YUMA           FAIR      50  36  57 NW6       30.20S
STERLING       NOT AVBL
HOLYOKE        NOT AVBL
FORT MORGAN    MOCLDY    51  43  72 NW12      30.24S
$$

COZ086-089-092>099-290800-
...SOUTHEAST COLORADO...

CITY           SKY/WX    TMP DP  RH WIND       PRES   REMARKS
PUEBLO         FAIR      54  44  69 NE3       30.21R
LA JUNTA       CLOUDY    56  44  64 W6        30.18S
LAMAR          FAIR      49  43  80 MISG      30.16R
SPRINGFIELD      N/A     47  43  86 CALM      30.19S
$$



USA.gov is the U.S. government's official web portal to all federal, state and local government web resources and services.